Home   Weather   Jarrow   Past weeks
Flag for United Kingdom

Past Weather in Jarrow, England, United Kingdom — Yesterday and Last 2 Weeks

Now
52 °F

Clear.


Feels Like: 51 °F
Forecast: 64 / 50 °F
Wind: 3 mph from North

Location: Newcastle

Current Time: Jun 18, 2019 at 3:56:10 am

Latest Report: Jun 18, 2019 at 3:20 am


Visibility: 10 mi

Pressure: 29.89 "Hg

Humidity: 88%

Dew Point: 48 °F

Location of JarrowLocation

Past Weather in Jarrow — Graph

°F

Jarrow Temperature Yesterday

Maximum temperature yesterday: 66 °F (at 3:50 pm)
Minimum temperature yesterday: 52 °F (at 4:20 am)
Average temperature yesterday: 58 °F

High & Low Weather Summary for the Past Weeks

 TemperatureHumidityPressure
High66 °F (Jun 17, 3:50 pm)100% (Jun 4, 7:20 pm)30.15 "Hg (Jun 4, 7:20 pm)
Low39 °F (Jun 7, 3:50 am)43% (Jun 6, 3:20 pm)29.47 "Hg (Jun 5, 2:20 am)
Average53 °F83%29.81 "Hg
* Reported Jun 3 2:20 am — Jun 18 2:20 am, Jarrow. Weather by CustomWeather, © 2019

Note: Actual official high and low records may vary slightly from our data, if they occured in-between our weather recording intervals... More about our weather records

Advertising

Jarrow Weather History for the Previous 24 Hours

Scroll right to see more
 ConditionsComfort  
Time TempWeatherWind HumidityBarometerVisibility
2:20 am
Tue, Jun 18
50 °FClear.2 mph94%29.89 "Hg10 mi
1:50 am52 °FClear.3 mph88%29.89 "Hg10 mi
1:20 am50 °FClear.2 mph88%29.89 "Hg10 mi
12:50 am50 °FClear.2 mph88%29.89 "Hg10 mi
12:20 am52 °FClear.2 mph82%29.89 "Hg10 mi
11:50 pm
Mon, Jun 17
52 °FPassing clouds.9 mph82%29.89 "HgN/A
11:20 pm54 °FClear.10 mph77%29.89 "Hg10 mi
10:50 pm54 °FPassing clouds.7 mph72%29.89 "HgN/A
9:50 pm55 °FPassing clouds.8 mph67%29.89 "HgN/A
9:20 pm57 °FPassing clouds.14 mph63%29.86 "HgN/A
8:50 pm57 °FPassing clouds.10 mph63%29.86 "HgN/A
8:20 pm59 °FPassing clouds.9 mph59%29.86 "HgN/A
7:50 pm61 °FPassing clouds.14 mph55%29.86 "HgN/A
7:20 pm63 °FPassing clouds.15 mph52%29.86 "HgN/A
6:50 pm63 °FPassing clouds.14 mph56%29.86 "HgN/A
6:20 pm63 °FPassing clouds.18 mph56%29.86 "HgN/A
5:50 pm64 °FPassing clouds.15 mph52%29.86 "HgN/A
5:20 pm64 °FPassing clouds.18 mph52%29.86 "HgN/A
4:50 pm64 °FPassing clouds.14 mph56%29.86 "HgN/A
4:20 pm63 °FPassing clouds.14 mph59%29.86 "HgN/A
3:50 pm66 °FPassing clouds.16 mph52%29.86 "HgN/A
3:20 pm64 °FPassing clouds.17 mph56%29.86 "HgN/A
2:50 pm64 °FPassing clouds.17 mph56%29.86 "HgN/A
2:20 pm63 °FPassing clouds.15 mph59%29.86 "HgN/A
1:50 pm63 °FPassing clouds.16 mph56%29.86 "HgN/A
12:50 pm63 °FScattered clouds.18 mph56%29.86 "HgN/A
12:20 pm61 °FScattered clouds.16 mph59%29.86 "HgN/A
11:50 am63 °FScattered clouds.16 mph59%29.86 "HgN/A
11:20 am63 °FScattered clouds.13 mph68%29.86 "HgN/A
10:50 am61 °FScattered clouds.14 mph68%29.86 "HgN/A
10:20 am61 °FPassing clouds.14 mph68%29.86 "HgN/A
9:50 am59 °FPassing clouds.14 mph72%29.86 "HgN/A
9:20 am59 °FPassing clouds.14 mph68%29.86 "HgN/A
8:50 am59 °FPassing clouds.14 mph72%29.83 "HgN/A
8:20 am59 °FPassing clouds.14 mph72%29.83 "HgN/A
7:50 am57 °FPassing clouds.13 mph77%29.83 "HgN/A
7:20 am57 °FPassing clouds.10 mph77%29.83 "HgN/A
6:50 am55 °FPassing clouds.8 mph82%29.83 "HgN/A
6:20 am54 °FPassing clouds.8 mph88%29.80 "HgN/A
5:50 am52 °FPassing clouds.9 mph94%29.80 "HgN/A
5:20 am52 °FPassing clouds.7 mph94%29.80 "HgN/A
4:50 am54 °FPassing clouds.8 mph88%29.80 "HgN/A
4:20 am52 °FPassing clouds.8 mph94%29.80 "HgN/A
3:50 am54 °FPassing clouds.10 mph94%29.80 "HgN/A
3:20 am54 °FPassing clouds.8 mph94%29.80 "HgN/A
Weather by CustomWeather, © 2019

See weather overview